Home > Weather > Ghazni > Past weeks

Flag for Afghanistan Weather for the Past 2 Weeks in Ghazni, Afghanistan

Now
84 °F

Haze.


Feels Like: 85 °F
Forecast: 49 / 74 °F
Wind: 5 mph from Northeast

Location: Peshawar Airport

Current Time: May 6, 2016 at 8:57:39 AM

Latest Report: May 6, 2016 at 8:30 AM


Visibility: 2 mi

Pressure: 29.80 "Hg (23.28 "Hg at 2184m altitude)

Humidity: 48%

Dew Point: 63 °F

Location of GhazniLocation

Historic Weather in Ghazni — Graph

°F

Ghazni Temperature Yesterday

Maximum temperature yesterday: 93 °F (at 3:30 PM)
Minimum temperature yesterday: 70 °F (at 3:30 AM)
Average temperature yesterday: 82 °F

High & Low Weather Summary for the Past Weeks

 TemperatureHumidityPressure
High102 °F (May 1, 2:30 PM)83% (May 4, 10:30 AM)29.95 "Hg (May 4, 10:30 AM)
Low61 °F (Apr 22, 4:30 AM)24% (Apr 23, 2:30 PM)29.59 "Hg (May 2, 3:30 PM)
Average81 °F46%29.77 "Hg
* Reported Apr 21 7:30 AM — May 6 7:30 AM, Ghazni, Weather by CustomWeather, © 2016

Note: Actual official high and low records may vary slightly from our data, if they occured in-between our weather recording intervals... More about our weather records

Advertising

Ghazni Weather History for the Previous 24 Hours

Scroll right to see more
 ConditionsComfort  
Time TempWeatherWind HumidityBarometerVisibility
7:30 AM
Fri, May 6
79 °FHaze.5 mph58%29.80 "Hg2 mi
7:00 AM75 °FHaze.7 mph65%29.80 "Hg2 mi
6:30 AM75 °FHaze.7 mph65%29.80 "Hg2 mi
6:00 AM72 °FHaze.5 mph69%29.80 "Hg2 mi
5:30 AM72 °FHaze.5 mph69%29.80 "Hg2 mi
5:00 AM70 °FHaze.7 mph73%29.77 "Hg2 mi
4:30 AM70 °FHaze.7 mph73%29.77 "Hg2 mi
4:00 AM70 °FHaze.7 mph73%29.83 "Hg2 mi
3:30 AM70 °FHaze.7 mph73%29.83 "Hg2 mi
3:00 AM72 °FHaze.7 mph69%29.83 "Hg2 mi
2:30 AM72 °FHaze.7 mph69%29.83 "Hg2 mi
2:00 AM73 °FHaze.7 mph69%29.83 "Hg2 mi
1:30 AM73 °FHaze.7 mph69%29.83 "Hg2 mi
1:00 AM75 °FHaze.7 mph65%29.83 "Hg2 mi
12:30 AM75 °FHaze.7 mph65%29.83 "Hg2 mi
12:00 AM77 °FHaze.7 mph61%29.86 "Hg2 mi
11:30 PM
Thu, May 5
77 °FHaze.7 mph61%29.86 "Hg2 mi
11:00 PM79 °FHaze.7 mph58%29.86 "Hg2 mi
10:30 PM79 °FHaze.7 mph58%29.86 "Hg2 mi
10:00 PM79 °FHaze.7 mph58%29.83 "Hg2 mi
9:30 PM79 °FHaze.7 mph58%29.83 "Hg2 mi
9:00 PM82 °FHaze.No wind58%29.83 "Hg2 mi
8:30 PM82 °FHaze.No wind58%29.83 "Hg2 mi
8:00 PM86 °FHaze.No wind52%29.80 "Hg2 mi
7:30 PM86 °FHaze.No wind52%29.80 "Hg2 mi
7:00 PM90 °FHaze.5 mph49%29.80 "Hg2 mi
6:30 PM90 °FHaze.5 mph49%29.80 "Hg2 mi
6:00 PM91 °FHaze.5 mph46%29.80 "Hg3 mi
5:30 PM91 °FHaze.5 mph46%29.80 "Hg3 mi
5:00 PM93 °FHaze.7 mph47%29.80 "Hg3 mi
4:30 PM93 °FHaze.7 mph47%29.80 "Hg3 mi
4:00 PM93 °FHaze.5 mph47%29.80 "Hg3 mi
3:30 PM93 °FHaze.5 mph47%29.80 "Hg3 mi
3:00 PM91 °FHaze.5 mph46%29.80 "Hg2 mi
2:30 PM91 °FHaze.5 mph46%29.80 "Hg2 mi
2:00 PM91 °FHaze.5 mph46%29.83 "Hg3 mi
1:30 PM91 °FHaze.5 mph46%29.83 "Hg3 mi
1:00 PM90 °FHaze.7 mph49%29.86 "Hg3 mi
12:30 PM90 °FHaze.7 mph49%29.86 "Hg3 mi
12:00 PM88 °FHaze.7 mph52%29.86 "Hg3 mi
11:30 AM88 °FHaze.7 mph52%29.86 "Hg3 mi
11:00 AM84 °FHaze.7 mph55%29.89 "Hg3 mi
10:30 AM84 °FHaze.7 mph55%29.89 "Hg3 mi
10:00 AM82 °FHaze.7 mph62%29.89 "Hg2 mi
9:30 AM82 °FHaze.7 mph62%29.89 "Hg2 mi
9:00 AM81 °FHaze.7 mph58%29.86 "Hg2 mi
8:00 AM77 °FHaze.7 mph61%29.86 "Hg2 mi
Weather by CustomWeather, © 2016

See weather overviewHow to use our weather pages